UAL2668 KDSM-KORD

Flight info

Callsign UAL2668
Flight time 0h 47m
Altitude 37000
Route DCT MYRRS FYTTE7
Aircraft B737/M-SDE2E3FGHIRWXY/LB1

Departure

Time 2026-04-26 17:47
Airport Des Moines International Airport (KDSM)

Arrival

Time 2026-04-26 18:34
Airport Chicago O'Hare International Airport (KORD)
Time Latitude Longitude Altitude Speed Heading
2026-04-26 17:21 41.53179 -93.64969 945 ft 0 kts 339°
2026-04-26 17:38 41.53169 -93.64964 946 ft 2 kts 339°
2026-04-26 17:38 41.53155 -93.64957 946 ft 2 kts 339°
2026-04-26 17:38 41.53146 -93.64952 946 ft 1 kts 339°
2026-04-26 17:38 41.53134 -93.64941 946 ft 2 kts 299°
2026-04-26 17:39 41.53131 -93.64922 946 ft 2 kts 263°
2026-04-26 17:39 41.53133 -93.64911 946 ft 1 kts 242°
2026-04-26 17:39 41.53136 -93.64904 946 ft 0 kts 242°
2026-04-26 17:42 41.53136 -93.64905 946 ft 0 kts 242°
2026-04-26 17:42 41.53119 -93.64945 947 ft 11 kts 238°
2026-04-26 17:42 41.53085 -93.64999 948 ft 6 kts 235°
2026-04-26 17:43 41.53125 -93.65138 947 ft 24 kts 317°
2026-04-26 17:43 41.53188 -93.65223 946 ft 24 kts 311°
2026-04-26 17:43 41.53253 -93.65317 945 ft 24 kts 311°
2026-04-26 17:44 41.53366 -93.65484 942 ft 24 kts 312°
2026-04-26 17:44 41.53486 -93.65659 937 ft 26 kts 312°
2026-04-26 17:44 41.53614 -93.65844 933 ft 27 kts 310°
2026-04-26 17:44 41.53744 -93.66043 930 ft 28 kts 313°
2026-04-26 17:45 41.53870 -93.66236 925 ft 27 kts 300°
2026-04-26 17:45 41.54003 -93.66412 924 ft 26 kts 311°
2026-04-26 17:45 41.54127 -93.66597 921 ft 27 kts 312°
2026-04-26 17:45 41.54256 -93.66785 919 ft 27 kts 312°
2026-04-26 17:46 41.54388 -93.66975 917 ft 27 kts 311°
2026-04-26 17:46 41.54518 -93.67168 914 ft 28 kts 311°
2026-04-26 17:46 41.54611 -93.67354 905 ft 17 kts 252°
2026-04-26 17:46 41.54506 -93.67369 901 ft 18 kts 128°
2026-04-26 17:47 41.54391 -93.67197 908 ft 52 kts 132°
2026-04-26 17:47 41.54146 -93.66840 913 ft 104 kts 131°
2026-04-26 17:47 41.53226 -93.65519 1167 ft 172 kts 133°
2026-04-26 17:47 41.52370 -93.64329 1968 ft 185 kts 134°
2026-04-26 17:48 41.51658 -93.62910 2838 ft 195 kts 105°
2026-04-26 17:48 41.51807 -93.61085 3648 ft 214 kts 69°
2026-04-26 17:48 41.52703 -93.59395 4386 ft 235 kts 54°
2026-04-26 17:48 41.53796 -93.57677 5129 ft 251 kts 54°
2026-04-26 17:49 41.54900 -93.55843 6004 ft 262 kts 56°
2026-04-26 17:49 41.56039 -93.53863 6718 ft 279 kts 57°
2026-04-26 17:49 41.57211 -93.51798 7667 ft 287 kts 57°
2026-04-26 17:49 41.58421 -93.49663 8614 ft 294 kts 56°
2026-04-26 17:50 41.59666 -93.47471 9591 ft 299 kts 56°
2026-04-26 17:50 41.60932 -93.45235 10421 ft 309 kts 56°
2026-04-26 17:50 41.62260 -93.42889 11066 ft 326 kts 55°
2026-04-26 17:50 41.63660 -93.40410 11681 ft 343 kts 55°
2026-04-26 17:51 41.65132 -93.37809 12262 ft 360 kts 54°
2026-04-26 17:51 41.66681 -93.35075 12801 ft 377 kts 54°
2026-04-26 17:51 41.68296 -93.32226 13343 ft 393 kts 54°
2026-04-26 17:51 41.69944 -93.29314 14231 ft 398 kts 54°
2026-04-26 17:52 41.71595 -93.26392 14970 ft 386 kts 54°
2026-04-26 17:52 41.73226 -93.23502 15083 ft 390 kts 54°
2026-04-26 17:52 41.74904 -93.20523 15337 ft 407 kts 54°
2026-04-26 17:52 41.76599 -93.17515 16381 ft 406 kts 54°
2026-04-26 17:53 41.78307 -93.14485 17296 ft 409 kts 53°
2026-04-26 17:53 41.80014 -93.11453 18166 ft 412 kts 53°
2026-04-26 17:53 41.81779 -93.08399 18833 ft 420 kts 51°
2026-04-26 17:54 41.85720 -93.02494 20280 ft 431 kts 46°
2026-04-26 17:54 41.87818 -92.99546 20950 ft 437 kts 45°
2026-04-26 17:54 41.89930 -92.96596 21602 ft 443 kts 45°
2026-04-26 17:54 41.92076 -92.93590 22292 ft 448 kts 44°
2026-04-26 17:55 41.94224 -92.90566 22885 ft 454 kts 44°
2026-04-26 17:55 41.96387 -92.87508 23494 ft 460 kts 44°
2026-04-26 17:55 41.98590 -92.84380 24129 ft 464 kts 44°
2026-04-26 17:55 42.00829 -92.81185 24755 ft 469 kts 44°
2026-04-26 17:56 42.03070 -92.77979 25358 ft 474 kts 44°
2026-04-26 17:56 42.07619 -92.71439 26498 ft 483 kts 45°
2026-04-26 17:57 42.12251 -92.64750 27575 ft 493 kts 45°
2026-04-26 17:57 42.14612 -92.61331 28107 ft 497 kts 45°
2026-04-26 17:57 42.17000 -92.57868 28562 ft 503 kts 45°
2026-04-26 17:57 42.19396 -92.54388 29243 ft 503 kts 45°
2026-04-26 17:58 42.26485 -92.44067 30964 ft 503 kts 44°
2026-04-26 17:59 42.33521 -92.33785 30989 ft 496 kts 45°
2026-04-26 17:59 42.38104 -92.26804 30987 ft 497 kts 52°
2026-04-26 18:00 42.39745 -92.22707 30994 ft 502 kts 69°
2026-04-26 18:00 42.40511 -92.18095 31005 ft 503 kts 83°
2026-04-26 18:00 42.41081 -92.08742 31004 ft 503 kts 87°
2026-04-26 18:01 42.41501 -91.99335 31010 ft 503 kts 87°
2026-04-26 18:01 42.41945 -91.89893 31020 ft 503 kts 86°
2026-04-26 18:02 42.42344 -91.82035 31015 ft 502 kts 86°
2026-04-26 18:02 42.42925 -91.71072 31013 ft 502 kts 86°
2026-04-26 18:03 42.43433 -91.61647 31019 ft 503 kts 86°
2026-04-26 18:03 42.43937 -91.52240 31020 ft 504 kts 85°
2026-04-26 18:04 42.44438 -91.42759 31024 ft 503 kts 85°
2026-04-26 18:05 42.45167 -91.28632 31025 ft 502 kts 86°
2026-04-26 18:05 42.45641 -91.19225 31027 ft 502 kts 86°
2026-04-26 18:06 42.46109 -91.09802 31032 ft 502 kts 86°
2026-04-26 18:06 42.46567 -91.00407 31040 ft 502 kts 86°
2026-04-26 18:07 42.47020 -90.90987 31047 ft 500 kts 86°
2026-04-26 18:07 42.47464 -90.81587 31048 ft 500 kts 85°
2026-04-26 18:08 42.47900 -90.72234 31055 ft 499 kts 85°
2026-04-26 18:08 42.48327 -90.62859 31053 ft 499 kts 85°
2026-04-26 18:09 42.48745 -90.53512 31054 ft 498 kts 85°
2026-04-26 18:09 42.49155 -90.44229 31054 ft 499 kts 85°
2026-04-26 18:10 42.49562 -90.34840 31060 ft 497 kts 86°
2026-04-26 18:10 42.49956 -90.25548 31049 ft 498 kts 86°
2026-04-26 18:11 42.50342 -90.16234 30879 ft 490 kts 86°
2026-04-26 18:11 42.50527 -90.11684 30318 ft 486 kts 86°
2026-04-26 18:11 42.50711 -90.07140 29571 ft 485 kts 86°
2026-04-26 18:11 42.50894 -90.02587 28702 ft 486 kts 86°
2026-04-26 18:12 42.51075 -89.98044 27772 ft 487 kts 86°
2026-04-26 18:12 42.51256 -89.93483 26786 ft 489 kts 86°
2026-04-26 18:12 42.51436 -89.88888 25737 ft 492 kts 86°
2026-04-26 18:12 42.51611 -89.84291 24937 ft 487 kts 87°
2026-04-26 18:13 42.51691 -89.79765 24299 ft 480 kts 90°
2026-04-26 18:13 42.51526 -89.75285 24086 ft 468 kts 95°
2026-04-26 18:13 42.51154 -89.70885 24077 ft 474 kts 98°
2026-04-26 18:13 42.50840 -89.67966 24074 ft 473 kts 99°
2026-04-26 18:14 42.50124 -89.62103 24073 ft 473 kts 100°
2026-04-26 18:14 42.49560 -89.57749 23930 ft 472 kts 100°
2026-04-26 18:14 42.48992 -89.53406 23356 ft 467 kts 100°
2026-04-26 18:14 42.48430 -89.49087 22565 ft 464 kts 100°
2026-04-26 18:15 42.47877 -89.44813 21802 ft 461 kts 100°
2026-04-26 18:15 42.47333 -89.40567 21233 ft 452 kts 100°
2026-04-26 18:15 42.46808 -89.36416 20950 ft 445 kts 100°
2026-04-26 18:15 42.46293 -89.32301 20701 ft 444 kts 101°
2026-04-26 18:16 42.45784 -89.28206 20206 ft 444 kts 101°
2026-04-26 18:16 42.44775 -89.20049 18755 ft 437 kts 101°
2026-04-26 18:16 42.44281 -89.16067 18039 ft 432 kts 101°
2026-04-26 18:17 42.43784 -89.12075 17288 ft 429 kts 101°
2026-04-26 18:17 42.43282 -89.08080 16483 ft 426 kts 102°
2026-04-26 18:17 42.42790 -89.04215 15905 ft 417 kts 102°
2026-04-26 18:17 42.42308 -89.00407 15590 ft 402 kts 101°
2026-04-26 18:18 42.41851 -88.96762 15300 ft 387 kts 102°
2026-04-26 18:18 42.41407 -88.93218 15091 ft 372 kts 102°
2026-04-26 18:18 42.40986 -88.89867 14921 ft 357 kts 102°
2026-04-26 18:18 42.40567 -88.86568 14710 ft 344 kts 102°
2026-04-26 18:19 42.40166 -88.83433 14302 ft 339 kts 102°
2026-04-26 18:19 42.39759 -88.80292 13815 ft 337 kts 103°
2026-04-26 18:19 42.39360 -88.77223 13370 ft 334 kts 102°
2026-04-26 18:19 42.38958 -88.74116 12950 ft 330 kts 102°
2026-04-26 18:20 42.38567 -88.71094 12518 ft 326 kts 102°
2026-04-26 18:20 42.38183 -88.68126 12333 ft 313 kts 102°
2026-04-26 18:20 42.37815 -88.65280 12186 ft 302 kts 102°
2026-04-26 18:20 42.37577 -88.63439 12155 ft 296 kts 102°
2026-04-26 18:21 42.37102 -88.59813 11745 ft 295 kts 102°
2026-04-26 18:21 42.36742 -88.57095 11305 ft 295 kts 103°
2026-04-26 18:21 42.36072 -88.54507 10925 ft 287 kts 126°
2026-04-26 18:21 42.34619 -88.52782 10566 ft 278 kts 154°
2026-04-26 18:22 42.32819 -88.51918 10218 ft 274 kts 164°
2026-04-26 18:22 42.30983 -88.51276 9863 ft 270 kts 166°
2026-04-26 18:22 42.29166 -88.50678 9521 ft 268 kts 166°
2026-04-26 18:22 42.27378 -88.50097 9174 ft 265 kts 166°
2026-04-26 18:23 42.25585 -88.49516 8826 ft 263 kts 166°
2026-04-26 18:23 42.23810 -88.48942 8533 ft 259 kts 166°
2026-04-26 18:23 42.22065 -88.48377 8233 ft 258 kts 166°
2026-04-26 18:23 42.20327 -88.47816 7934 ft 257 kts 166°
2026-04-26 18:24 42.18591 -88.47254 7632 ft 256 kts 166°
2026-04-26 18:24 42.16834 -88.46687 7324 ft 256 kts 166°
2026-04-26 18:24 42.15110 -88.46130 7023 ft 255 kts 166°
2026-04-26 18:24 42.13393 -88.45579 6737 ft 252 kts 166°
2026-04-26 18:25 42.11686 -88.45039 6453 ft 252 kts 166°
2026-04-26 18:25 42.09987 -88.44508 6173 ft 250 kts 166°
2026-04-26 18:25 42.08279 -88.43984 5908 ft 249 kts 166°
2026-04-26 18:25 42.06584 -88.43472 5609 ft 249 kts 166°
2026-04-26 18:26 42.04907 -88.42970 5301 ft 248 kts 166°
2026-04-26 18:26 42.03226 -88.42471 5023 ft 246 kts 166°
2026-04-26 18:26 42.01557 -88.41980 4954 ft 244 kts 166°
2026-04-26 18:26 41.99857 -88.41483 4942 ft 247 kts 166°
2026-04-26 18:27 41.98199 -88.40977 4937 ft 247 kts 161°
2026-04-26 18:27 41.96762 -88.39771 4940 ft 246 kts 129°
2026-04-26 18:27 41.96111 -88.37653 4950 ft 249 kts 97°
2026-04-26 18:27 41.96159 -88.35336 4949 ft 251 kts 86°
2026-04-26 18:28 41.96308 -88.32996 4944 ft 251 kts 89°
2026-04-26 18:28 41.96360 -88.30647 4942 ft 249 kts 91°
2026-04-26 18:28 41.96366 -88.28315 4947 ft 248 kts 92°
2026-04-26 18:28 41.96372 -88.26016 4945 ft 249 kts 92°
2026-04-26 18:29 41.96389 -88.23695 4939 ft 244 kts 91°
2026-04-26 18:29 41.96410 -88.21480 4881 ft 231 kts 92°
2026-04-26 18:29 41.96423 -88.19335 4594 ft 229 kts 91°
2026-04-26 18:29 41.96435 -88.17208 4269 ft 226 kts 91°
2026-04-26 18:30 41.96449 -88.15171 3961 ft 209 kts 91°
2026-04-26 18:30 41.96460 -88.13300 3683 ft 193 kts 91°
2026-04-26 18:30 41.96470 -88.11550 3418 ft 180 kts 91°
2026-04-26 18:30 41.96478 -88.09942 3181 ft 169 kts 91°
2026-04-26 18:31 41.96486 -88.08401 2958 ft 157 kts 90°
2026-04-26 18:31 41.96493 -88.06996 2735 ft 145 kts 90°
2026-04-26 18:31 41.96499 -88.05671 2547 ft 142 kts 90°
2026-04-26 18:31 41.96507 -88.04357 2355 ft 140 kts 90°
2026-04-26 18:32 41.96513 -88.03050 2161 ft 139 kts 90°
2026-04-26 18:32 41.96518 -88.01756 1974 ft 138 kts 90°
2026-04-26 18:32 41.96523 -88.00464 1783 ft 138 kts 90°
2026-04-26 18:32 41.96529 -87.99180 1595 ft 138 kts 90°
2026-04-26 18:33 41.96534 -87.97895 1410 ft 139 kts 89°
2026-04-26 18:33 41.96540 -87.96588 1219 ft 140 kts 89°
2026-04-26 18:33 41.96547 -87.95271 1031 ft 140 kts 89°
2026-04-26 18:33 41.96553 -87.93961 841 ft 140 kts 88°
2026-04-26 18:34 41.96560 -87.92661 682 ft 137 kts 88°
2026-04-26 18:34 41.96569 -87.91567 668 ft 87 kts 87°
2026-04-26 18:34 41.96593 -87.90973 666 ft 52 kts 78°
2026-04-26 18:34 41.96687 -87.90694 665 ft 17 kts 59°
2026-04-26 18:35 41.96724 -87.90608 664 ft 8 kts 61°
2026-04-26 18:35 41.96738 -87.90510 664 ft 21 kts 91°
2026-04-26 18:35 41.96740 -87.90275 661 ft 28 kts 89°
2026-04-26 18:35 41.96740 -87.90006 656 ft 30 kts 89°
2026-04-26 18:36 41.96740 -87.89712 650 ft 28 kts 88°
2026-04-26 18:36 41.96743 -87.89460 649 ft 22 kts 88°
2026-04-26 18:36 41.96745 -87.89241 651 ft 22 kts 86°
2026-04-26 18:36 41.96814 -87.89075 652 ft 16 kts 12°
2026-04-26 18:37 41.96927 -87.89070 654 ft 17 kts
2026-04-26 18:37 41.97013 -87.89071 654 ft 0 kts 360°
2026-04-26 18:37 41.97016 -87.89071 654 ft 0 kts 360°
2026-04-26 18:37 41.97034 -87.89070 654 ft 9 kts
2026-04-26 18:38 41.97163 -87.89082 654 ft 16 kts 332°
2026-04-26 18:38 41.97189 -87.89171 654 ft 8 kts 278°
2026-04-26 18:38 41.97194 -87.89247 654 ft 10 kts 271°
2026-04-26 18:38 41.97195 -87.89388 654 ft 16 kts 269°
2026-04-26 18:39 41.97217 -87.89527 654 ft 15 kts 313°
2026-04-26 18:39 41.97263 -87.89578 654 ft 3 kts 247°
2026-04-26 18:39 41.97221 -87.89661 654 ft 16 kts 243°
2026-04-26 18:39 41.97172 -87.89786 657 ft 12 kts 244°
2026-04-26 18:40 41.97143 -87.89888 659 ft 10 kts 253°
2026-04-26 18:40 41.97136 -87.90034 660 ft 24 kts 270°
2026-04-26 18:40 41.97136 -87.90253 663 ft 19 kts 269°
2026-04-26 18:40 41.97139 -87.90423 664 ft 18 kts 272°
2026-04-26 18:41 41.97181 -87.90524 664 ft 11 kts 340°
2026-04-26 18:41 41.97216 -87.90606 665 ft 9 kts 273°
2026-04-26 18:41 41.97224 -87.90691 667 ft 10 kts 289°
2026-04-26 18:41 41.97295 -87.90826 667 ft 20 kts 311°
2026-04-26 18:42 41.97386 -87.90949 668 ft 17 kts 318°
2026-04-26 18:42 41.97470 -87.91039 667 ft 12 kts 327°
2026-04-26 18:42 41.97523 -87.90989 667 ft 12 kts 63°
2026-04-26 18:42 41.97581 -87.90897 664 ft 14 kts 16°
2026-04-26 18:43 41.97676 -87.90871 664 ft 13 kts
2026-04-26 18:43 41.97772 -87.90848 664 ft 13 kts
2026-04-26 18:43 41.97866 -87.90829 664 ft 13 kts 10°
2026-04-26 18:43 41.97961 -87.90806 664 ft 13 kts
2026-04-26 18:44 41.98009 -87.90770 664 ft 6 kts 85°
2026-04-26 18:44 41.98006 -87.90723 664 ft 2 kts 99°
2026-04-26 18:44 41.98005 -87.90714 664 ft 0 kts 99°